Regional Weather Roundup
Issued by NWS

Home | Current Version | Previous Version | Text Only | Print | Product List | Glossary On
Versions: 1 2 3 4 5 6 7 8 9 10 11 12 13 14 15 16 17 18 19 20 21 22 23 24 25 26 27 28 29 30 31 32 33 34 35 36 37 38 39 40 41 42 43 44 45 46 47 48 49 50
000
ASHW40 PHFO 190543
RWRHI

WEATHER ROUNDUP FOR HAWAII
NATIONAL WEATHER SERVICE HONOLULU HI
700 PM HST FRI APR 18 2014

THIS IS AN AUTOMATED REPORT THAT HAS NOT BEEN QUALITY CONTROLLED.

NOTE..."FAIR" INDICATES FEW OR NO CLOUDS BELOW 12,000 FEET WITH NO
SIGNIFICANT WEATHER AND/OR OBSTRUCTIONS TO VISIBILITY.

* - THESE SITES REPORT LIMITED FIELDS

HIZ001>004-190600-
KAUAI-NIIHAU-

CITY           SKY/WX    TMP DP  RH WIND       PRES   REMARKS
LIHUE APT      CLOUDY    75  69  81 NE15      30.11R
PORT ALLEN*      N/A     77 N/A N/A E16G23      N/A
POIPU*           N/A     75 N/A N/A NE10G17     N/A
PRINCEVILLE*   NOT AVBL
KOKOLE POINT*    N/A     79  66  65 MISG        N/A
MOLOAA DAIRY*  NOT AVBL
WAIMEA HTS*      N/A     73  59  60 E10G17      N/A
PUU OPAE*        N/A     68  55  64 CALM        N/A
PUU LUA*       NOT AVBL
MAKAHA RIDGE*  NOT AVBL
$$

HIZ005>011-190600-
OAHU-

CITY           SKY/WX    TMP DP  RH WIND       PRES   REMARKS
HONOLULU       CLOUDY    76  66  71 N7        30.07S
KALAELOA       CLOUDY    75  66  73 VRB3      30.08R
KANEOHE MCB    CLOUDY    75  65  70 E14G24    30.09R
WHEELER FIELD  LGT RAIN  71  67  86 NE9       30.09S
BELLOWS*       NOT AVBL
KAHUKU*          N/A    N/A N/A N/A NE6G13      N/A
WHEELER*       NOT AVBL
WAIANAE HARBOR NOT AVBL
DILLINGHAM*      N/A     79  70  73 E6G17       N/A
KAHUKU TRN*      N/A     73  68  83 E12G20      N/A
KAWAILOA*      NOT AVBL
KII*             N/A     75  68  78 E16         N/A
MAKUA RANGE*     N/A     75  66  73 E13G28      N/A
OAHU FOREST NW   N/A     64  64 100 N13G35      N/A
SCHOFIELD BRK*   N/A     77  72  83 MISG        N/A
SCHOFIELD S*     N/A     68 N/A N/A CALM        N/A
WAIANAE VLY*     N/A     72  63  73 SE10G30     N/A
KUAOKALA*        N/A     70  64  83 NE24G35     N/A
HONOULIUULI*   NOT AVBL
MOKUOLOE IS*     N/A    N/A N/A N/A MISG        N/A
PALEHUA*         N/A     77  68  73 CALM        N/A
WAIAWA PHB*    NOT AVBL
$$

HIZ012>013-190600-
MOLOKAI-

CITY           SKY/WX    TMP DP  RH WIND       PRES   REMARKS
MOLOKAI AIRPT  MOCLDY    72  68  87 E10G18    30.08R
KALAUPAPA      NOT AVBL
MAKAPULAPAI*     N/A     75  66  73 E21G29      N/A
MOLOKAI 1*       N/A     63  57  82 NE5G17      N/A
PUU ALII*        N/A     56  55  97 E3G12       N/A
$$

HIZ016-190600-
KAHOOLAWE-

CITY           SKY/WX    TMP DP  RH WIND       PRES   REMARKS
KAHOOLAWE*       N/A     68 N/A N/A E17G26      N/A
HAKIOAWA*        N/A     70  61  72 MISG      30.19R
HONOKANAIA*      N/A     76  62  60 NE14G29   30.07R
KANELOA*       NOT AVBL
KEALIALALO*      N/A    N/A N/A N/A E17G31    30.37R
LUA MAKIKA*    NOT AVBL
$$

HIZ014>015-190600-
LANAI-

CITY           SKY/WX    TMP DP  RH WIND       PRES   REMARKS
LANAI CITY     FAIR      70  64  81 NE16G23   30.11R
LANAI 1*         N/A     68  68 100 NE22G35     N/A
$$

HIZ017>028-190600-
MAUI-

CITY           SKY/WX    TMP DP  RH WIND       PRES   REMARKS
KAHULUI        MOCLDY    75  65  70 NE17G26   30.07R
KAPALUA-W MAUI NOT AVBL
HANA AIRPORT   NOT AVBL
HANA*            N/A     75 N/A N/A E8          N/A
HALEAKALA SUMM   N/A     48 -17   6 SE30        N/A
MAALAEA BAY*   NOT AVBL
HALEAKALA*     NOT AVBL
KAUPO GAP*       N/A     66  57  72 CALM        N/A
KULA 1*          N/A     52  51  96 NE2         N/A
$$

HIZ023>026-190600-
BIG ISLAND OF HAWAII COAST AND LOWER SLOPES-

CITY           SKY/WX    TMP DP  RH WIND       PRES   REMARKS
KAILUA KONA    CLOUDY    79  69  71 NW14      30.01S
HILO           CLOUDY    75  67  76 NE8       30.09R
HONOKAA*       NOT AVBL
KAWAIHAE MWT*    N/A     81 N/A N/A VRB1G13     N/A
KAWAIHAE*        N/A     81 N/A N/A E8          N/A
SOUTH POINT*     N/A     72 N/A N/A NE21G31     N/A
UPOLU AIRPORT*   N/A    N/A N/A N/A NE21G29     N/A
KAMUELA*       PTCLDY    63  59  88 NE20      30.15S
HAKALAU*         N/A     50  50 100 E2          N/A
KALOKO-HONOKO*   N/A     79  68  69 NW10        N/A
PALI 2*          N/A     64  57  77 N20G31      N/A
KEALAKOMO*       N/A     79  63  57 NE17G26     N/A
KAUPULEHU*       N/A     72  57  60 NE7G15      N/A
KAPAPALA*        N/A     71  60  67 N6G16       N/A
LOWER KAHUKU*  NOT AVBL
PUHE CS*       NOT AVBL
PUHO CS*         N/A     77  65  66 NW3         N/A
PTA KEAMUKU*     N/A     61  55  82 NE18G29     N/A
WAIKOLOA*        N/A     73  59  60 E22G32      N/A
$$

HIZ027>028-190600-
BIG ISLAND OF HAWAII INTERIOR AND SUMMMITS-

CITY           SKY/WX    TMP DP  RH WIND       PRES   REMARKS
BRADSHAW FIELD CLOUDY    55  51  89 W6        30.34R
MK VISITOR CEN NOT AVBL
MAUNA KEA*       N/A     34 -26   7 SE25        N/A  WCI  21
MAUNA LOA*       N/A     48 -36   2 MISG        N/A
MAUNA LOA 1*     N/A    N/A N/A N/A MISG        N/A
PTA KIPUKA*      N/A     59  57  94 NW3G9       N/A
PTA RANGE 17*    N/A     57  50  77 SE13G23     N/A
PTA WEST*        N/A     72  68  88 SW7G13      N/A
NENE CABIN*    NOT AVBL
AHUMOA*          N/A     51  51  99 CALM        N/A
PTA PORTABLE*  NOT AVBL
PUU MALI*      NOT AVBL
$$

HIC003-190600-
NORTHWEST ISLANDS-

CITY           SKY/WX    TMP DP  RH WIND       PRES   REMARKS
MIDWAY ISLAND  CLOUDY    70  70 100 E20       30.21S
MIDWAY NOS*    NOT AVBL
FRENCH FRIGATE NOT AVBL
$$

PHZ110>124-180-190600-
BUOY REPORTS

STATION/POSITION TIME  TEMP    WIND        PRES    WAVE   SWELL
                       AIR SEA DIR/SP/G            HT/PER HT/DIR
                 (UTC) (F)     (DEG/KT/KT) (MB)    (FT/S) (FT/D)
BUOY 51001       NOT AVBL
BUOY 51101       0500   73 74   70/ 16/ 19 1020.2R   5/ 8   3/250
BUOY 51100       NOT AVBL
BUOY 51003       0500   78 78   70/ 14/ 16 1016.5R   7/ 7   5
BUOY 51004       0500   78 78   70/ 17/ 21 1014.5R
BARBERS PT BUOY  NOT AVBL
WAIMEA BAY BUOY  0500      75                N/A     5/11   2/310
KAILUA BAY BUOY  0500      76                N/A     8/ 8   2/ 20
LANAI BUOY       0500      78                N/A     3/12   2/250
BARBERS PT 2     0500      76                N/A     4/11   2/300
PAUWELA MAUI     NOT AVBL
HILO             0500      78                N/A     7/ 8   3/340
KANEOHE BAY BUOY 0500      75                N/A     6/ 8   2/360
HANALEI KAUAI    0500      77                N/A     7/ 9
KAHULUI HARBOR   0500   76 77   60/ 13/ 20 1018.3R
HONOLULU HARBOR  0500   74      60/  7/ 10 1018.7R
KILO NALU        NOT AVBL
HILO HARBOR      0500   76 77   40/ 11/ 13 1018.4R
MOKUOLOE         0500   75 76   70/ 15/ 18 1019.2R
NAWILIWILI       0500      76                N/A
WHOTS BUOY       NOT AVBL
BUOY 51028       NOT AVBL
$$

......................KEY........................................
  SKY/WX - SKY CONDITIONS/PRESENT WEATHER
  TMP    - TEMPERATURE IN FAHRENHEIT
  DWPT   - DEWPOINT IN FAHRENHEIT
  RH     - RELATIVE HUMIDITY IN PERCENT
  WIND   - DIRECTION AND SPEED /MPH FOR ISLANDS...KTS FOR BUOYS/
  PRES   - MEAN SEA LEVEL PRESSURE IN INCHES OF HG
  VSB    - VISIBILITY IN MILES
  HX     - HEAT INDEX
  WCI    - WIND CHILL INDEX
  VRB    - VARIABLE WIND DIRECTION
  N/A    - NOT AVAILABLE



USA.gov is the U.S. government's official web portal to all federal, state and local government web resources and services.